Flag for Czech Republic Weather past 2 weeks in Brno, Czech Republic

Now
69 °F

Overcast.


Feels Like: 69 °F
Forecast: 55 / 74 °F
Wind: 7 mph from Southwest

Location: Brno / Turany

Current Time: Jul 29, 2015 at 2:36:28 PM

Latest Report: Jul 29, 2015 at 1:00 PM


Visibility: 22 mi

Pressure: 29.83 "Hg

Humidity: 54%

Dew point: 52 °F

Location of BrnoLocation

Historic Weather in Brno — Graph

°F

Brno temperature yesterday

Maximum temperature yesterday: 79 °F (at 4:00 PM)
Minimum temperature yesterday: 54 °F (at 5:00 AM)
Average temperature yesterday: 67 °F

Past Weeks' High & Low Weather Summary

 TemperatureHumidityPressure
High96 °F (Jul 22, 5:00 PM)99% (Jul 28, 2:00 AM)30.14 "Hg (Jul 28, 2:00 AM)
Low54 °F (Jul 28, 5:00 AM)27% (Jul 17, 6:00 PM)29.66 "Hg (Jul 25, 5:00 PM)
Average75 °F58%29.90 "Hg
* Reported Jul 14 1:00 PM — Jul 29 1:00 PM, Brno, Weather by CustomWeather, © 2015

Note: Actual official high and low records may vary slightly from our data, if they occured in-between our weather recording intervals... More about our weather records

Advertising

Brno weather history for previous 24 hours

 ConditionsComfort  
Time TempWeatherWind HumidityBarometerVisibility
1:00 PM
Wed, Jul 29
69 °FOvercast.7 mph54%29.83 "Hg22 mi
12:00 PM69 °FPartly sunny.8 mph60%29.84 "Hg19 mi
11:00 AM65 °FOvercast.7 mph71%29.86 "Hg19 mi
10:00 AM63 °FOvercast.5 mph79%29.88 "Hg12 mi
9:00 AM61 °FLight rain. Overcast.3 mph86%29.89 "Hg12 mi
8:00 AM59 °FLight rain. Overcast.3 mph89%29.89 "Hg12 mi
7:00 AM58 °FLight rain. Overcast.3 mph90%29.88 "Hg16 mi
6:00 AM58 °FLight rain. Overcast.1 mph86%29.88 "Hg12 mi
4:00 AM61 °FLight rain. Overcast.3 mph81%29.86 "Hg16 mi
3:00 AM64 °FLight rain. Overcast.3 mph72%29.83 "Hg16 mi
2:00 AM65 °FLight rain. Overcast.3 mph63%29.81 "Hg16 mi
1:00 AM67 °FLight rain. Overcast.2 mph59%29.80 "Hg16 mi
12:00 AM68 °FPassing clouds.2 mph61%29.80 "Hg19 mi
10:00 PM
Tue, Jul 28
69 °FPassing clouds.5 mph59%29.77 "Hg25 mi
9:00 PM72 °FPassing clouds.3 mph52%29.75 "Hg25 mi
8:00 PM73 °FPartly sunny.6 mph49%29.74 "Hg28 mi
7:00 PM74 °FPartly sunny.6 mph47%29.72 "Hg28 mi
6:00 PM76 °FOvercast.8 mph43%29.71 "Hg25 mi
5:00 PM77 °FPartly sunny.9 mph42%29.70 "Hg25 mi
4:00 PM79 °FPartly sunny.8 mph39%29.71 "Hg25 mi
3:00 PM78 °FPartly sunny.9 mph40%29.73 "Hg25 mi
2:00 PM77 °FOvercast.9 mph39%29.75 "Hg25 mi
Weather by CustomWeather, © 2015

See weather overviewHow to use our weather pages